| time (UTC) | temp C | wind direction | speed KPH | gust KPH | rain 1hr cm | rain 24hr cm | rain mn cm | humidity % | barometer mb |
| 20260505070026 | 17 | 155 | 0.0 | 8.0 | 0.00 | 0.00 | 0.00 | 66 | 1014.2 |
| 20260505064534 | 17 | 183 | 0.0 | 6.4 | 0.00 | 0.00 | 0.00 | 65 | 1014.2 |
| 20260505063005 | 17 | 113 | 1.6 | 11.3 | 0.00 | 0.00 | 0.00 | 65 | 1014.2 |
| 20260505061515 | 17 | 200 | 1.6 | 14.5 | 0.00 | 0.00 | 0.00 | 65 | 1014.2 |
| 20260505060012 | 17 | 69 | 1.6 | 9.7 | 0.00 | 0.00 | 0.00 | 65 | 1014.1 |
| 20260505054525 | 17 | 74 | 1.6 | 6.4 | 0.00 | 0.00 | 0.00 | 65 | 1014.2 |
| 20260505053022 | 17 | 82 | 4.8 | 16.1 | 0.00 | 0.00 | 0.00 | 65 | 1014.3 |
| 20260505051505 | 17 | 145 | 6.4 | 12.9 | 0.00 | 0.00 | 0.00 | 65 | 1014.3 |
| 20260505041523 | 18 | 207 | 0.0 | 8.0 | 0.00 | 0.00 | 0.00 | 63 | 1014.2 |
| 20260505040008 | 18 | 199 | 1.6 | 8.0 | 0.00 | 0.00 | 0.00 | 60 | 1014.0 |
| 20260505034511 | 18 | 198 | 4.8 | 12.9 | 0.00 | 0.00 | 0.00 | 58 | 1014.0 |
| 20260505033020 | 18 | 157 | 3.2 | 14.5 | 0.00 | 0.00 | 0.00 | 56 | 1013.9 |
| 20260505031537 | 18 | 94 | 1.6 | 14.5 | 0.00 | 0.00 | 0.00 | 55 | 1013.9 |
| 20260505030024 | 18 | 244 | 1.6 | 3.2 | 0.00 | 0.00 | 0.00 | 53 | 1013.8 |
| 20260505024518 | 18 | 91 | 0.0 | 3.2 | 0.00 | 0.00 | 0.00 | 53 | 1013.6 |
| 20260505023014 | 19 | 60 | 0.0 | 8.0 | 0.00 | 0.00 | 0.00 | 52 | 1013.5 |
| 20260505021525 | 19 | 259 | 0.0 | 6.4 | 0.00 | 0.00 | 0.00 | 50 | 1013.4 |
| 20260505020030 | 20 | 218 | 0.0 | 6.4 | 0.00 | 0.00 | 0.00 | 50 | 1013.3 |
| 20260505014529 | 19 | 257 | 1.6 | 8.0 | 0.00 | 0.00 | 0.00 | 51 | 1013.2 |
| 20260505013010 | 18 | 258 | 3.2 | 9.7 | 0.00 | 0.00 | 0.00 | 52 | 1012.8 |
| 20260505011528 | 18 | 288 | 0.0 | 3.2 | 0.00 | 0.00 | 0.00 | 54 | 1013.1 |
| 20260505010021 | 18 | 338 | 0.0 | 3.2 | 0.00 | 0.00 | 0.00 | 52 | 1013.0 |
| 20260505004541 | 19 | 338 | 0.0 | 3.2 | 0.00 | 0.00 | 0.00 | 49 | 1012.8 |
| 20260505003009 | 20 | 338 | 0.0 | 0.0 | 0.00 | 0.00 | 0.00 | 47 | 1012.9 |
| 20260505001515 | 21 | 338 | 0.0 | 3.2 | 0.00 | 0.00 | 0.00 | 46 | 1012.6 |
| 20260505000008 | 22 | 181 | 0.0 | 0.0 | 0.00 | 0.00 | 0.00 | 41 | 1012.4 |
| 20260504234505 | 22 | 175 | 0.0 | 3.2 | 0.00 | 0.00 | 0.00 | 39 | 1012.4 |
| 20260504233008 | 23 | 190 | 0.0 | 4.8 | 0.00 | 0.00 | 0.00 | 39 | 1012.4 |
| 20260504231515 | 23 | 162 | 0.0 | 6.4 | 0.00 | 0.00 | 0.00 | 37 | 1012.3 |
| 20260504230019 | 24 | 233 | 3.2 | 9.7 | 0.00 | 0.00 | 0.00 | 35 | 1012.3 |
| 20260504224506 | 25 | 173 | 0.0 | 9.7 | 0.00 | 0.00 | 0.00 | 34 | 1012.1 |
| 20260504223007 | 25 | 144 | 1.6 | 8.0 | 0.00 | 0.00 | 0.00 | 33 | 1012.1 |
| 20260504221513 | 26 | 171 | 3.2 | 8.0 | 0.00 | 0.00 | 0.00 | 31 | 1012.2 |
| 20260504220015 | 26 | 201 | 1.6 | 14.5 | 0.00 | 0.00 | 0.00 | 33 | 1012.1 |
| 20260504214504 | 26 | 238 | 3.2 | 11.3 | 0.00 | 0.00 | 0.00 | 33 | 1012.1 |
| 20260504213005 | 26 | 304 | 1.6 | 6.4 | 0.00 | 0.00 | 0.00 | 33 | 1012.2 |
| 20260504211527 | 26 | 190 | 3.2 | 6.4 | 0.00 | 0.00 | 0.00 | 35 | 1012.4 |
| 20260504210026 | 26 | 260 | 3.2 | 9.7 | 0.00 | 0.00 | 0.00 | 36 | 1012.4 |
| 20260504204519 | 26 | 27 | 3.2 | 11.3 | 0.00 | 0.00 | 0.00 | 32 | 1012.7 |
| 20260504203029 | 26 | 230 | 1.6 | 9.7 | 0.00 | 0.00 | 0.00 | 34 | 1012.7 |
| 20260504201525 | 26 | 273 | 4.8 | 11.3 | 0.00 | 0.00 | 0.00 | 32 | 1012.8 |
| 20260504200012 | 26 | 14 | 0.0 | 11.3 | 0.00 | 0.00 | 0.00 | 29 | 1013.0 |
| 20260504194531 | 26 | 233 | 4.8 | 11.3 | 0.00 | 0.00 | 0.00 | 30 | 1013.2 |
| 20260504193024 | 26 | 156 | 3.2 | 9.7 | 0.00 | 0.00 | 0.00 | 35 | 1013.3 |
| 20260504191508 | 25 | 159 | 1.6 | 8.0 | 0.00 | 0.00 | 0.00 | 35 | 1013.6 |
| 20260504190012 | 25 | 109 | 1.6 | 8.0 | 0.00 | 0.00 | 0.00 | 33 | 1013.8 |
| 20260504184530 | 24 | 220 | 3.2 | 14.5 | 0.00 | 0.00 | 0.00 | 35 | 1013.9 |
| 20260504183020 | 25 | 155 | 1.6 | 9.7 | 0.00 | 0.00 | 0.00 | 32 | 1014.0 |
| 20260504181532 | 25 | 90 | 3.2 | 9.7 | 0.00 | 0.00 | 0.00 | 34 | 1014.2 |
| 20260504180010 | 25 | 244 | 3.2 | 14.5 | 0.00 | 0.00 | 0.00 | 32 | 1014.4 |
| 20260504174514 | 25 | 175 | 4.8 | 14.5 | 0.00 | 0.00 | 0.00 | 33 | 1014.5 |
| 20260504173019 | 25 | 178 | 6.4 | 12.9 | 0.00 | 0.00 | 0.00 | 34 | 1014.7 |
| 20260504171524 | 25 | 273 | 4.8 | 12.9 | 0.00 | 0.00 | 0.00 | 31 | 1014.8 |
| 20260504081526 | 10 | 257 | 0.0 | 3.2 | 0.00 | 0.00 | 0.00 | 70 | 1017.6 |